II KLUBOWE MISTRZOSTWA W BIEGU MORSÓW PO PLAŻY - 2,5 KM

Organizator:
Gmina Mielno
Data:
2019-02-08
Miejsce:
Mielno
Dystans:
2.5 km
Zgłoszonych:
310
Wystartowało:
232
Nie ukończyło:
0
Ukończyło:
232
Na trasie:
0

Klasyfikacja: K-OPEN

Wyniki nieoficjalne !!!
Pełne wyniki : PDF | CSV
Wyniki uproszczone: PDF | PDF2 | CSV
Klasyfikacje w punktach pomiarowych: Meta
Klasyfikacje wg kategorii: Wszyscy | K-OPEN | M-OPEN | Zespół

MscZawodnikNumerKlubMiejscowośćKrajKategoriaMkatK/MCzas
netto
2.5km
Różn.Tempo
min/km
Tempo
km/h
     
1DEJEWSKA Arleta 29SZARE MORSYJASTRZĘBIE-ZDRÓJZespół26K 100:13:23.64 5:2111.2
2SZYMAŃSKA Brygida 267STRZEGOMSKA DWUNASTKAJAROSZÓWZespół27K 200:13:24.62+00:00:005:2111.2
3DURKALEC Ewelina 41STRZEGOMSKA DWUNASTKABOLKÓWZespół43K 300:14:33.85+00:01:105:4910.3
4DZIADKEWICZ Karolina 44MORSY OPOLE AKTYWNIOPOLEZespół46K 400:14:40.93+00:01:175:5210.2
5SZEWCZYK Monika 261KKM KALORYFERKRAKÓWZespół50K 500:14:54.96+00:01:315:5710.1
6KOT Oliwia 117MORSY NA KOKSIEZDZIESZOWICEZespół51K 600:15:01.91+00:01:386:0010
7GNIOT Katarzyna 68MORSY NA KOKSIEZDZIESZOWICEZespół53K 700:15:02.06+00:01:386:0010
8ZAKRZEWSKA Elżbieta 303KOSZALIŃSKI KLUB MORSÓW POSEJDONSTOISŁAWZespół55K 800:15:09.69+00:01:466:039.9
9DOBROCHOWSKA Ilona 32STRZEGOMSKA DWUNASTKASTRZEGOMZespół60K 900:15:21.36+00:01:576:089.8
10WOŁCZYK Małgorzata 296KS AMBERTOMASZÓW MAZOWIECKIZespół62K 1000:15:22.48+00:01:586:089.8
11SERWICKA Emilia 231JURAJSKIE MORSYZAWIERCIEZespół66K 1100:15:31.93+00:02:086:129.7
12PEŁKA Aneta 196KS AMBERTOMASZÓW MAZZespół68K 1200:15:39.47+00:02:156:159.6
13BORKOWSKA-KOWALCZYK Daria 18KOSZALIŃSKI KLUB MORSÓW POSEJDONKOSZALINZespół69K 1300:15:44.09+00:02:206:179.5
14SERGIEJ Iwona 229KOSZALIŃSKI KLUB MORSÓW POSEJDONSIANÓWZespół71K 1400:15:45.11+00:02:216:189.5
15KRUPA Irena 122EKIPA LODOWCOWA CHLEWISKACHLEWISKAZespół72K 1500:15:45.41+00:02:216:189.5
16CHILLA Danuta 23MIELNOZespół75K 1600:15:51.91+00:02:286:209.5
17BINIENDA Agnieszka 13ŚWIETOCHŁOWICKI KLUB MORSÓW HARCIOLEZABRZEZespół78K 1700:15:57.33+00:02:336:229.4
18PLICH Agnieszka 207KS AMBERTOMASZÓW MAZZespół80K 1800:15:59.89+00:02:366:239.4
19SROKA Lidia 242JURAJSKIE MORSYZAWIERCIEZespół83K 1900:16:15.65+00:02:526:309.2
20GĘBKA Joanna 59JURAJSKIE MORSYZAWIERCIEZespół84K 2000:16:16.16+00:02:526:309.2
21SZOTA Monika 264KKM KALORYFERKRAKÓWZespół87K 2100:16:31.44+00:03:076:369.1
22SURÓWKA Wioleta 253KKM KALORYFERMOGILANYZespół90K 2200:16:38.08+00:03:146:399
23PADEWSKA Patrycja 189PIONKOWSKIE MORSYPIONKIZespół94K 2300:16:49.17+00:03:256:438.9
24KIJAK Elzbieta 102EKIPA LODOWCOWA CHLEWISKACHLEWISKAZespół100K 2400:17:02.69+00:03:396:488.8
25DUDEK Magdalena 40KKM KALORYFERKRAKOWZespół101K 2500:17:04.05+00:03:406:498.8
26BAJCAR Beata 6SZARE MORSYCHYBIEZespół105K 2600:17:11.37+00:03:476:528.7
27KOZŁOWSKA Renata 120EKIPA LODOWCOWA CHLEWISKACHLEWISKAZespół106K 2700:17:13.53+00:03:496:538.7
28SERWATKA Angelika 230ŚWIĘTOCHŁOWICKI KLUB MORSÓW HARCIOLEZABRZEZespół108K 2800:17:14.89+00:03:516:538.7
29STUDNIAREK Magdalena 249LODOŁAMACZ SKIERNIEWICESKIERNIEWICEZespół111K 2900:17:25.29+00:04:016:588.6
30SZWAJA Marcelina 266KAMIENNOGÓRSKA GRUPA BIEGOWAKAMIENNA GÓRAZespół112K 3000:17:32.05+00:04:087:008.6
31FEDYCZKOWSKA Justyna 49STRZEGOMSKA DWUNASTKASTRZEGOMZespół113K 3100:17:35.85+00:04:127:028.5
32JASEK Wiola 83ŚWIĘTOCHŁOWICKI KLUB MORSÓW HARCIOLEZABRZEZespół114K 3200:17:36.15+00:04:127:028.5
33SOWA Malwina 240PIONKIZespół117K 3300:17:45.85+00:04:227:068.5
34KIEŁKOWSKA Agnieszka 98SZARE MORSYJASTRZĘBIEZespół118K 3400:17:48.71+00:04:257:078.4
35PODSIADŁA Ewelina 210EKIPA LODOWCOWA CHLEWISKABUDKIZespół124K 3500:18:15.00+00:04:517:188.2
36GIŻYŃSKA Katarzyna 62SZARE MORSYJASTRZĘBIE ZDRÓJZespół126K 3600:18:17.50+00:04:537:188.2
37DZIECHCIARZ-DUDA Joanna 46JURAJSKIE MORSYZAWIERCIEZespół129K 3700:18:29.45+00:05:057:238.1
38LAL Monika 136GĘSIA SKÓRKA GRYFICEGRYFICEZespół136K 3800:18:45.68+00:05:227:308
39BORYCZKO Ewa 19MORSY ANTONIEGOKRAKÓWZespół137K 3900:18:46.46+00:05:227:308
40AUGUSTYN Agnieszka 3MORSY NA KOKSIEZDZIESZOWICEZespół142K 4000:18:54.28+00:05:307:337.9
41PIĘCH Karolina 203RKM SOPELEKRZESZÓWZespół147K 4100:19:13.50+00:05:497:417.8
42NECEL Dorota 178KKM KALORYFERKRAKÓWZespół148K 4200:19:17.60+00:05:537:427.8
43DUDEK Mariola 36STRZEGOMSKA DWUNASTKAJAROSŁAWZespół149K 4300:19:22.46+00:05:587:447.7
44OLESZCZUK Lidia 182PIONKOWSKIE MORSYPIONKIZespół151K 4400:19:27.08+00:06:037:467.7
45KAŹMIERCZAK Hanna 93ŚREMSKI KLUB MORSÓW MROZIKŚREMZespół152K 4500:19:31.93+00:06:087:487.7
46KOŚCIELNIAK Sandra 116ŚREMSKI KLUB MORSÓW MROZIKŚREMZespół154K 4600:19:32.51+00:06:087:487.7
47KOZAK Dorota 119PTSE SOSNOWIECSIEMIANOWICE ŚLĄSKIEZespół157K 4700:19:46.42+00:06:227:547.6
48WCISŁO Ewelina 287RKM SOPELEKRADZISZÓWZespół158K 4800:19:48.83+00:06:257:557.6
49CEGLAREK Maria 22WOLSZTYNIEWOLSZTYNZespół160K 4900:19:54.54+00:06:307:577.5
50SZCZEPAŃSKA Bożena 255MORSY OPOLE AKTYWNIOPOLEZespół162K 5000:19:59.46+00:06:357:597.5
51WIECZOREK Katarzyna 289BĘDZINZespół163K 5100:20:08.91+00:06:458:037.5
52WOICKA Ewa 292KS AMBERTOMASZÓW MAZOWIECKIZespół164K 5200:20:39.71+00:07:168:157.3
53SUCHOCKA PRZYBYLIK Ewa 250ZAWIERCIEZespół166K 5300:20:45.64+00:07:218:187.2
54MARCZEWSKA Aneta 156PIONKOWSKIE MORSYPIONKIZespół168K 5400:20:48.53+00:07:248:197.2
55KARAZIM Małgorzata 90KS AMBEROLSZOWAZespół169K 5500:20:51.05+00:07:278:207.2
56PLATA Katarzyna 206KOSZALIŃSKI KLUB MORSÓW POSEJDONKOSZALINZespół170K 5600:21:01.57+00:07:378:247.1
57FELKOWSKA Karolina 51KOSZALIŃSKI KLUB MORSÓW POSEJDONKOSZALINZespół171K 5700:21:01.62+00:07:378:247.1
58KWARCIAK Natalia 131STARGARDZKI KLUB MORSÓW MIEDWIANIESTARGARDZespół173K 5800:21:11.42+00:07:478:287.1
59KWIATKOWSKA Julita 135STARGARDZKI KLUB MORSÓW MIEDWIANIESTARGARDZespół174K 5900:21:15.67+00:07:528:307.1
60SOBOŃ Agnieszka 239NIAGARA KLUB MORSÓWWOLSZTYNZespół175K 6000:21:17.68+00:07:548:307
61MĄCZYNSKA Karolina 160EKIPA LODOWCOWA CHLEWISKASZYDŁOWIECZespół176K 6100:21:21.21+00:07:578:327
62PŁOSZAJCZYK Beata 208STRZEGOMSKA DWUNASTKABOLKÓWZespół177K 6200:21:23.28+00:07:598:337
63BŁASZCZYK Joanna 14BARWICEZespół179K 6300:21:27.17+00:08:038:347
64GRODZIŃSKA Agnieszka 73STARGARDZKI KLUB MORSÓW MIEDWIANIESTARGARDZespół180K 6400:21:27.28+00:08:038:347
65KAWA Małgorzata 92RKM SOPELEKRZESZÓWZespół181K 6500:21:29.29+00:08:058:357
66NOWAK Katarzyna 179ŚREMSKI KLUB MORSÓW MROZIKŚREMZespół182K 6600:21:29.47+00:08:058:357
67SZKATULNIK Karolina 262MORSY OPOCZNODOROBNA WOLAZespół183K 6700:21:30.09+00:08:068:367
68PAJĄK Anna 190KS AMBERTOMASZÓW MAZOWIECKIZespół184K 6800:21:31.63+00:08:078:367
69BARAN Irena 8SZARE MORSYJASTRZĘBIE-ZDRÓJZespół185K 6900:21:44.17+00:08:208:416.9
70MRÓZ-NOWIŃSKA Iwona 172MORSY NA KOKSIEZDZIESZOWICEZespół186K 7000:22:13.15+00:08:498:536.8
71TROJANOWSKA Jolanta 273STARGARDZKI KLUB MORSÓW MIEDWIANIESTARGARDZespół187K 7100:22:13.27+00:08:498:536.8
72SKOWYRA Wioletta 235GĘSIA SKÓRKA GRYFICEBARKOWOZespół188K 7200:22:47.36+00:09:239:066.6
73RYBACKA Katarzyna 224POLAR BARTOSZYCERAWICZZespół189K 7300:22:57.51+00:09:339:106.5
74ROGOWSKA Anna 218PIONKOWSKIE MORSYPIONKIZespół192K 7400:23:40.40+00:10:169:286.3
75JANKOWSKA Paulina 81PIONKOWSKIE MORSYPIONKIZespół193K 7500:23:42.78+00:10:199:286.3
76PSIUK Ewa 217PIONKOWSKIE MORSYPIONKIZespół194K 7600:23:43.78+00:10:209:296.3
77BAWOŁ-BERNATEK Bożena 11STRZEGOMSKA DWUNASTKASTRZEGOMZespół198K 7700:24:26.10+00:11:029:466.1
78SIKORRA Janina 233BŁEKITNE MORSY ŁEBSKIELĘDZIECHOWOZespół199K 7800:24:27.93+00:11:049:466.1
79DYRCZ-MAĆKOWIAK Wiesława 42KLUB MORSA KROPELKA PIECHOWICEPIECHOWICEZespół201K 7900:25:30.95+00:12:0710:125.9
80OZGA Iwona Ozga 187RKM SOPELEKNIENADÓWKAZespół202K 8000:25:43.08+00:12:1910:175.8
81KĘDZIOR Katarzyna 94RKM SOPELEKRZESZÓWZespół203K 8100:25:44.57+00:12:2010:175.8
82WOŹNIAK Małgorzata 298MORSY NA KOKSIEZDZIESZOWICEZespół204K 8200:25:45.11+00:12:2110:185.8
83WOŹNIAK Anna 299ŚWIETOCHŁOWICKI KLUB MORSÓW HARCIOLEBYTOMZespół206K 8300:25:51.76+00:12:2810:205.8
84PIETRASZEK Ewa 202ŚWIETOCHŁOWICKI KLUB MORSÓW HARCIOLECHORZÓWZespół207K 8400:25:52.11+00:12:2810:205.8
85DAJCZMAN Anna 25MILICKI KLUB MORSÓWMILICZZespół211K 8500:26:39.28+00:13:1510:395.6
86RUDZKA Jolanta 223KLUB MORSA KROPELKA PIECHOWICEPIECHOWICEZespół212K 8600:26:39.87+00:13:1610:395.6
87ZAPORA Patrycja 305KLUB MORSA KROPELKA PIECHOWICEPIECHOWICEZespół213K 8700:26:41.54+00:13:1710:405.6
88DAJCZMAN Wiktoria 27MILICKI KLUB MORSÓWMIICZZespół214K 8800:26:41.90+00:13:1810:405.6
89KRZEPKOWSKA - SZACH Anna 124KLUB MORSA KROPELKA PIECHOWICEPIECHOWICEZespół215K 8900:26:43.33+00:13:1910:415.6
90SZEWCZYK Sylwia 260MILICKI KLUB MORSÓWMIICZZespół216K 9000:26:43.42+00:13:1910:415.6
91ŚREDNICKA Beata 271KLUB MORSA KROPELKA PIECHOWICEPIECHOWICEZespół217K 9100:26:47.97+00:13:2410:425.6
92KUCHARCZYK Elżbieta 126GĘSIA SKÓRKA GRYFICELUBINZespół220K 9200:28:03.81+00:14:4011:135.3
93SITARSKA Agnieszka 234ŚWIĘTOCHŁOWICKI KLUB MORSÓW HARCIOLERUDA ŚLĄSKAZespół221K 9300:28:38.82+00:15:1511:275.2
94ZAWISZS Beata 306ŚWIĘTOCHŁOWICKI KLUB MORSÓW HARCIOLEŚWIĘTOCHŁOWICEZespół222K 9400:28:39.03+00:15:1511:275.2
95SPROSKA Kornelia 241ŚWIĘTOCHŁOWICKI KLUB MORSÓW HARCIOLEBYTOMZespół223K 9500:29:26.85+00:16:0311:465.1
96FRANKOWSKA Anna 55ŚWIĘTOCHŁOWICKI KLUB MORSÓW HARCIOLECHORZÓWZespół224K 9600:29:27.62+00:16:0311:465.1
97GALAS Agnieszka 57MORSY NA KOKSIEZDZIESZOWICEZespół225K 9700:29:46.41+00:16:2211:545
98SROKA Ewa 243JURAJSKIE MORSYOLKUSZZespół226K 9800:31:23.96+00:18:0012:334.8
99ŚMIGIELSKA Justyna 269MORSY NA KOKSIEZDZIESZOWICEZespół228K 9900:32:17.40+00:18:5312:544.6
100STACHOWICZ-MĄCZKA Dorota 245JURAJSKIE MORSYOLKUSZZespół230K 10000:32:20.76+00:18:5712:564.6
Znaleziono 100 wynik(ów)